Weather History for Mansfield, OH

Change the Weather History Date:

Tuesday, November 20, 2012

  Actual Average Record
Temperature  
Mean Temperature 47 °F 40 °F  
Max Temperature 58 °F 47 °F 72 °F (1931)
Min Temperature 36 °F 32 °F 10 °F (1951)
Degree Days  
Heating Degree Days 18 25  
Month to date heating degree days 480 434  
Since 1 July heating degree days 1052 1002  
Cooling Degree Days 0 0  
Month to date cooling degree days 0 0  
Year to date cooling degree days 955 632  
Moisture  
Dew Point 36 °F    
Average Humidity 63    
Maximum Humidity 83    
Minimum Humidity 43    
Precipitation  
Precipitation T in 0.13 in 1.62 in (1950)
Month to date precipitation 0.78 2.54  
Year to date precipitation 36.26 39.63  
Snow  
Snow 0.00 in 0.10 in - ()
Month to date snowfall T 1.0  
Since 1 July snowfall 2.5 1.5  
Since 1 September snowfall 2.5 1.5  
Snow Depth 0.00 in    
Sea Level Pressure  
Sea Level Pressure 30.15 in    
Wind  
Wind Speed 3 mph (SSW)    
Max Wind Speed 8 mph    
Max Gust Speed 9 mph    
Visibility 10 miles    
Events Rain    
T = Trace of Precipitation, MM = Missing Value Source: NWS Daily Summary

Daily Weather History Graph

Daily Weather History Graph

Search for Another Location

Airport:

Trip Planner

Search our weather history database for the weather conditions in past years. The results will help you decide how hot, cold, wet, or windy it might be!

Date:

Astronomy

Nov. 20, 2012 Rise Set
Actual Time 7:23 AM EST 5:07 PM EST
Civil Twilight 6:53 AM EST 5:37 PM EST
Nautical Twilight 6:20 AM EST 6:11 PM EST
Astronomical Twilight 5:47 AM EST 6:43 PM EST
Moon 12:55 PM EST (11/20) No Moon Set
Length of Visible Light 10h 43m
Length of Day
9h 44m
Waxing Crescent, 51% of the Moon is Illuminated
Nov 20
Waxing Crescent
Nov 28
Full
Dec 6
Last Quarter
Dec 13
New
Dec 20
First Quarter

Hourly Weather History & Observations

Time (EST) Temp. Windchill Dew Point Humidity Pressure Visibility Wind Dir Wind Speed Gust Speed Precip Events Conditions
12:52 AM 37.9 °F 35.5 °F 32.0 °F 79% 30.20 in 10.0 mi SSE 3.5 mph - N/A   Clear
1:52 AM 37.0 °F 34.5 °F 32.0 °F 82% 30.18 in 10.0 mi SE 3.5 mph - N/A   Clear
2:52 AM 39.2 °F 37.0 °F 32.0 °F 75% 30.16 in 10.0 mi South 3.5 mph - N/A   Clear
3:52 AM 39.0 °F 36.8 °F 33.1 °F 79% 30.17 in 10.0 mi SSE 3.5 mph - N/A   Clear
4:52 AM 39.9 °F 37.8 °F 33.1 °F 77% 30.16 in 10.0 mi South 3.5 mph - N/A   Scattered Clouds
5:52 AM 41.0 °F 38.0 °F 34.0 °F 76% 30.17 in 10.0 mi South 4.6 mph - N/A   Overcast
6:52 AM 44.1 °F 41.5 °F 33.1 °F 65% 30.17 in 10.0 mi WSW 4.6 mph - N/A   Overcast
7:52 AM 43.0 °F 41.3 °F 34.0 °F 71% 30.17 in 10.0 mi South 3.5 mph - N/A   Overcast
8:52 AM 45.0 °F 41.2 °F 36.0 °F 71% 30.17 in 9.0 mi South 6.9 mph - N/A   Scattered Clouds
9:52 AM 48.0 °F - 35.1 °F 61% 30.16 in 10.0 mi SSW 3.5 mph - N/A   Mostly Cloudy
10:52 AM 51.1 °F - 37.0 °F 59% 30.17 in 10.0 mi Calm Calm - N/A   Overcast
11:52 AM 54.0 °F - 36.0 °F 51% 30.14 in 10.0 mi Calm Calm - N/A   Mostly Cloudy
12:52 PM 55.9 °F - 36.0 °F 47% 30.13 in 10.0 mi NW 3.5 mph - N/A   Scattered Clouds
1:52 PM 55.9 °F - 35.1 °F 45% 30.11 in 10.0 mi South 5.8 mph - N/A   Mostly Cloudy
2:52 PM 55.9 °F - 33.1 °F 42% 30.10 in 10.0 mi SW 6.9 mph - N/A   Overcast
3:52 PM 54.0 °F - 35.1 °F 49% 30.10 in 10.0 mi SSW 3.5 mph - N/A   Mostly Cloudy
4:52 PM 52.0 °F - 37.9 °F 59% 30.11 in 10.0 mi West 4.6 mph - N/A   Overcast
5:52 PM 51.1 °F - 37.9 °F 61% 30.13 in 10.0 mi West 4.6 mph - N/A   Overcast
6:52 PM 48.0 °F - 39.0 °F 71% 30.14 in 10.0 mi Calm Calm - N/A   Overcast
7:52 PM 48.9 °F - 37.9 °F 66% 30.16 in 10.0 mi Calm Calm - 0.00 in Rain Light Rain
8:52 PM 45.0 °F - 42.1 °F 90% 30.17 in 10.0 mi Calm Calm - 0.00 in   Overcast
9:52 PM 46.0 °F - 41.0 °F 83% 30.16 in 10.0 mi Calm Calm - N/A   Overcast
10:52 PM 45.0 °F - 39.9 °F 82% 30.16 in 10.0 mi Calm Calm - N/A   Overcast
11:52 PM 44.1 °F - 39.0 °F 82% 30.15 in 10.0 mi Calm Calm - N/A   Overcast